Regional Weather Roundup
Issued by NWS

Home | Current Version | Previous Version | Graphics & Text | Print | Product List | Glossary On
Versions: 1 2 3 4 5 6 7 8 9 10 11 12 13 14 15 16 17 18 19 20 21 22 23 24 25 26 27 28 29 30 31 32 33 34 35 36 37 38 39 40 41 42 43 44 45 46 47 48 49 50
000
ASUS43 KFSD 031902
RWRSD

WEATHER ROUNDUP FOR SOUTH DAKOTA
NATIONAL WEATHER SERVICE SIOUX FALLS SD
200 PM CDT TUE MAY 03 2016

NOTE: "FAIR" INDICATES FEW OR NO CLOUDS BELOW 12,000 FEET WITH NO
SIGNIFICANT WEATHER AND/OR OBSTRUCTIONS TO VISIBILITY.


SDZ001>005-009-010-012>017-032000-
NORTHWEST AND NORTH CENTRAL SOUTH DAKOTA

CITY           SKY/WX    TMP DP  RH WIND       PRES   REMARKS
BUFFALO          N/A     73  33  23 N14G23    30.02F
FAITH            N/A     72  35  25 NW17      30.03F
MOBRIDGE       SUNNY     77  39  25 NW20G25   29.94F
$$

SDZ012>016-024>037-041>051-057-063-072>074-032000-
SOUTHWEST AND SOUTH CENTRAL SOUTH DAKOTA

CITY           SKY/WX    TMP DP  RH WIND       PRES   REMARKS
RAPID CTY ARPT SUNNY     69  37  30 N20G25    30.09F
PIERRE         SUNNY     70  42  36 NW16      29.99F
CUSTER         SUNNY     65  28  24 NE12      30.16F
ELLSWORTH AFB  SUNNY     69  36  30 N18       30.09F
PHILIP         SUNNY     72  40  31 N12       30.04F
PINE RIDGE     SUNNY     66  31  27 N13G21    30.10F
WINNER         FAIR      68  44  42 NW13G22   30.02F
$$

SDZ004>011-016>023-039-040-032000-
NORTHEAST SOUTH DAKOTA

CITY           SKY/WX    TMP DP  RH WIND       PRES   REMARKS
ABERDEEN       SUNNY     77  42  28 NW22G29   29.88F
WATERTOWN      SUNNY     70  42  36 W17G23    29.88F
BROOKINGS      SUNNY     66  40  38 NW18G26   29.89F
SISSETON         N/A     76  36  23 NW29G40   29.80F
$$

SDZ017-020-022-023-036>040-048>070-032000-
SOUTHEAST SOUTH DAKOTA

CITY           SKY/WX    TMP DP  RH WIND       PRES   REMARKS
SIOUX FALLS    PTSUNNY   66  45  46 NW17G26   29.93F
HURON          SUNNY     71  43  36 NW17G26   29.92F
MITCHELL       MOSUNNY   68  47  46 NW17G26   29.96F
YANKTON        MOSUNNY   66  45  45 W21       29.97F
$$

ABBREVIATIONS USED IN REMARKS
   TC - TEMPERATURE IN CELSIUS
  WCI - WIND CHILL INDEX
   HX - HEAT INDEX
  VSB - VISIBILITY





USA.gov is the U.S. government's official web portal to all federal, state and local government web resources and services.